Location: Bilsen
(53.7722°N, 9.8765°E)
Time: 07:04:34
(UTC+00:00)

Cosmos 1727 Rocket - Pass Details

Date: 18 February 2020
Orbit: 962 x 996 km, 82.9° (Epoch: 31 March)

Event Time Altitude Azimuth Distance (km) Brightness Sun altitude
Rises 04:59:00 0° 204° (SSW) 3,650 6.8 -14.7°
Reaches altitude 10° 05:01:34 10° 208° (SSW) 2,703 6.1 -14.4°
Maximum altitude 05:07:37 56° 287° (WNW) 1,139 4.0 -13.5°
Drops below altitude 10° 05:13:43 10° 5° (N) 2,712 6.4 -12.6°
Sets 05:16:18 0° 10° (N) 3,662 7.1 -12.2°
